Location: Maddington
(51.2000°N, 1.9167°W)
Time: 22:09:37
(UTC+00:00)

NOSS 3-2 (A) - Pass Details

Date: 24 January 2021
Orbit: 783 x 1425 km, 63.4° (Epoch: 07 March)

Event Time Altitude Azimuth Distance (km) Brightness Sun altitude
Rises 07:13:07 0° 235° (SW) 3,384 6.0 -6.8°
Reaches altitude 10° 07:15:27 10° 238° (WSW) 2,509 5.3 -6.5°
Maximum altitude 07:21:14 66° 321° (NW) 1,042 3.5 -5.7°
Drops below altitude 10° 07:28:01 10° 44° (NE) 2,926 6.3 -4.7°
Sets 07:30:56 0° 47° (NE) 3,989 7.0 -4.3°
